If you wish to contribute or participate in the discussions about articles you are invited to join SKYbrary as a registered user

 Actions

Tarbes-Lourdes-Pyrénées Airport

From SKYbrary Wiki

LFBT /
Revision as of 09:45, 30 April 2016 by Timo.Kouwenhoven (talk | contribs)
(diff) ← Older revision | Latest revision (diff) | Newer revision → (diff)
Airport
ICAO: LFBT – IATA: LDE
Summary
Name Tarbes-Lourdes-Pyrénées Airport
Region Europe
Territory France FR.gif
Location Ossun, Midi-Pyrenees
Serving Tarbes
Elevation 383.743 m
1,259 ft
1,259 ft383.743 m
Coordinates 43° 10' 56.78" N, 0° 0' 14.63" W
Runways
Designator Length Width Surface ROPS
2/20 3000 m9,842.52 ft
45 m147.638 ft
ASP yes/yes


METAR
Observation LFBT 232000Z AUTO 21003KT 9999 FEW049 BKN170 11/10 Q1007 TEMPO 4000 SHRA BKN009 BKN020TCU
Station Tarbes Ossun Lourdes
Date/Time 23 October 2019 20:00:00
Wind direction 210°
Wind speed 03 kts
Lowest cloud amount few clouds
Temperature 11°C
Dew point 10°C
Humidity 93%
QNH 1007 hPa
Weather condition n/a

WX
Tag(s) Fog
Low Level Turbulence

Tarbes Airport

ICAO: LFBT IATA: LDE

Description

International airport serving Tarbes.

Climatology

Temperate Marine climate/Oceanic climate (Köppen climate classification Cfb). Moderately cool summer and comparatively warm winter. Prevailing south-westerly winds from the Atlantic Ocean.

Maps

Terrain

Loading map...

Airport Layout

Loading map...


Accidents & Serious Incidents at or in vicinity of LFBT

None on SKYbrary